| time (UTC) | temp F | wind direction | speed MPH | gust MPH | rain 1hr in | rain 24hr in | rain mn in | humidity % | barometer mb |
| 20260505234618 | 33 | 237 | 1.0 | 5.0 | 0.00 | 0.00 | 0.00 | 89 | 1000.9 |
| 20260505233100 | 34 | 193 | 1.0 | 7.0 | 0.00 | 0.00 | 0.00 | 88 | 1000.4 |
| 20260505231559 | 34 | 150 | 1.0 | 6.0 | 0.00 | 0.00 | 0.00 | 87 | 1000.3 |
| 20260505230116 | 36 | 275 | 2.0 | 5.0 | 0.00 | 0.00 | 0.00 | 84 | 1000.3 |
| 20260505224609 | 37 | 325 | 2.0 | 12.0 | 0.00 | 0.00 | 0.00 | 82 | 999.8 |
| 20260505223118 | 37 | 275 | 4.0 | 14.0 | 0.00 | 0.00 | 0.00 | 83 | 999.5 |
| 20260505221618 | 36 | 170 | 4.0 | 9.0 | 0.00 | 0.00 | 0.00 | 84 | 999.4 |
| 20260505220147 | 36 | 145 | 3.0 | 9.0 | 0.00 | 0.00 | 0.00 | 84 | 999.5 |
| 20260505214616 | 35 | 163 | 3.0 | 11.0 | 0.00 | 0.00 | 0.00 | 88 | 999.6 |
| 20260505213054 | 34 | 150 | 4.0 | 9.0 | 0.00 | 0.00 | 0.00 | 90 | 999.9 |
| 20260505211611 | 33 | 160 | 2.0 | 8.0 | 0.00 | 0.00 | 0.00 | 91 | 1000.1 |
| 20260505204601 | 35 | 163 | 4.0 | 9.0 | 0.00 | 0.00 | 0.00 | 85 | 1000.2 |
| 20260505203104 | 37 | 159 | 2.0 | 7.0 | 0.00 | 0.00 | 0.00 | 83 | 1000.3 |
| 20260505201615 | 37 | 244 | 1.0 | 7.0 | 0.00 | 0.00 | 0.00 | 82 | 999.9 |
| 20260505200108 | 37 | 210 | 2.0 | 11.0 | 0.00 | 0.00 | 0.00 | 82 | 999.9 |
| 20260505194609 | 36 | 155 | 3.0 | 10.0 | 0.00 | 0.00 | 0.00 | 85 | 1000.0 |
| 20260505193122 | 37 | 196 | 4.0 | 8.0 | 0.00 | 0.00 | 0.00 | 83 | 1000.1 |
| 20260505191628 | 36 | 254 | 1.0 | 9.0 | 0.00 | 0.00 | 0.00 | 86 | 1000.1 |
| 20260505190013 | 36 | 192 | 4.0 | 9.0 | 0.00 | 0.00 | 0.00 | 85 | 999.8 |
| 20260505184528 | 36 | 185 | 5.0 | 11.0 | 0.00 | 0.00 | 0.00 | 87 | 1000.0 |
| 20260505183102 | 35 | 163 | 4.0 | 10.0 | 0.00 | 0.00 | 0.00 | 90 | 1000.0 |
| 20260505181505 | 35 | 196 | 5.0 | 10.0 | 0.00 | 0.00 | 0.00 | 91 | 999.9 |
| 20260505180020 | 34 | 184 | 7.0 | 12.0 | 0.00 | 0.00 | 0.00 | 91 | 1000.1 |
| 20260505174507 | 35 | 208 | 5.0 | 14.0 | 0.00 | 0.00 | 0.00 | 90 | 1000.0 |
| 20260505173022 | 35 | 166 | 4.0 | 9.0 | 0.00 | 0.00 | 0.00 | 90 | 1000.0 |
| 20260505171536 | 34 | 211 | 4.0 | 9.0 | 0.00 | 0.00 | 0.00 | 90 | 1000.2 |
| 20260505170044 | 34 | 128 | 6.0 | 9.0 | 0.00 | 0.00 | 0.00 | 90 | 1000.4 |
| 20260505164547 | 34 | 180 | 5.0 | 9.0 | 0.00 | 0.00 | 0.00 | 91 | 1000.3 |
| 20260505163108 | 34 | 150 | 4.0 | 9.0 | 0.00 | 0.00 | 0.00 | 91 | 1000.4 |
| 20260505161623 | 34 | 138 | 3.0 | 10.0 | 0.00 | 0.00 | 0.00 | 90 | 1000.4 |
| 20260505160112 | 34 | 201 | 4.0 | 10.0 | 0.00 | 0.00 | 0.00 | 90 | 1000.4 |
| 20260505153052 | 34 | 144 | 3.0 | 10.0 | 0.00 | 0.00 | 0.00 | 90 | 1000.4 |
| 20260505151553 | 35 | 148 | 6.0 | 9.0 | 0.00 | 0.00 | 0.00 | 88 | 1000.3 |
| 20260505150105 | 35 | 146 | 3.0 | 6.0 | 0.00 | 0.00 | 0.00 | 87 | 1000.3 |
| 20260505124549 | 35 | 173 | 0.0 | 1.0 | 0.00 | 0.00 | 0.00 | 93 | 999.9 |
| 20260505123046 | 35 | 173 | 0.0 | 5.0 | 0.00 | 0.00 | 0.00 | 93 | 999.7 |
| 20260505121551 | 35 | 175 | 0.0 | 0.0 | 0.00 | 0.00 | 0.00 | 92 | 999.7 |
| 20260505120114 | 35 | 175 | 0.0 | 0.0 | 0.00 | 0.00 | 0.00 | 92 | 999.5 |
| 20260505114614 | 35 | 175 | 0.0 | 0.0 | 0.00 | 0.00 | 0.00 | 92 | 999.9 |
| 20260505113120 | 35 | 175 | 0.0 | 0.0 | 0.00 | 0.00 | 0.00 | 92 | 999.9 |
| 20260505111557 | 36 | 175 | 0.0 | 0.0 | 0.00 | 0.00 | 0.00 | 92 | 999.9 |
| 20260505110110 | 36 | 175 | 0.0 | 0.0 | 0.00 | 0.00 | 0.00 | 92 | 999.8 |
| 20260505101525 | 35 | 153 | 2.0 | 6.0 | 0.00 | 0.00 | 0.00 | 91 | 999.6 |
| 20260505100007 | 35 | 139 | 1.0 | 5.0 | 0.00 | 0.00 | 0.00 | 91 | 999.8 |
| 20260505094542 | 35 | 123 | 3.0 | 7.0 | 0.00 | 0.00 | 0.00 | 91 | 999.9 |
| 20260505093051 | 35 | 188 | 1.0 | 3.0 | 0.00 | 0.00 | 0.00 | 89 | 1000.0 |
| 20260505091614 | 35 | 315 | 0.0 | 0.0 | 0.00 | 0.00 | 0.00 | 88 | 999.7 |
| 20260505090057 | 35 | 315 | 0.0 | 0.0 | 0.00 | 0.00 | 0.00 | 88 | 999.8 |
| 20260505084548 | 35 | 315 | 0.0 | 0.0 | 0.00 | 0.00 | 0.00 | 88 | 999.7 |
| 20260505083057 | 35 | 315 | 0.0 | 0.0 | 0.00 | 0.00 | 0.00 | 87 | 1000.0 |
| 20260505081606 | 36 | 315 | 0.0 | 0.0 | 0.00 | 0.00 | 0.00 | 87 | 1000.3 |
| 20260505080112 | 36 | 315 | 0.0 | 0.0 | 0.00 | 0.00 | 0.00 | 88 | 1000.3 |
| 20260505074617 | 36 | 306 | 0.0 | 0.0 | 0.00 | 0.00 | 0.00 | 89 | 1000.4 |
| 20260505073124 | 36 | 306 | 0.0 | 0.0 | 0.00 | 0.00 | 0.00 | 89 | 1000.5 |
| 20260505071550 | 36 | 306 | 0.0 | 0.0 | 0.00 | 0.00 | 0.00 | 88 | 1000.8 |
| 20260505070040 | 37 | 306 | 0.0 | 0.0 | 0.00 | 0.00 | 0.00 | 87 | 1000.5 |
| 20260505064619 | 37 | 306 | 0.0 | 0.0 | 0.00 | 0.00 | 0.00 | 87 | 1000.6 |
| 20260505063115 | 38 | 306 | 1.0 | 4.0 | 0.00 | 0.00 | 0.00 | 85 | 1000.5 |
| 20260505061620 | 38 | 169 | 0.0 | 3.0 | 0.00 | 0.00 | 0.00 | 83 | 1000.3 |
| 20260505060119 | 38 | 325 | 0.0 | 0.0 | 0.00 | 0.00 | 0.00 | 84 | 1000.5 |
| 20260505054612 | 38 | 325 | 0.0 | 0.0 | 0.00 | 0.00 | 0.00 | 83 | 1000.8 |
| 20260505053017 | 39 | 325 | 0.0 | 0.0 | 0.00 | 0.00 | 0.00 | 81 | 1000.8 |
| 20260505051521 | 40 | 325 | 0.0 | 0.0 | 0.00 | 0.00 | 0.00 | 77 | 1000.7 |
| 20260505041633 | 41 | 132 | 2.0 | 3.0 | 0.00 | 0.00 | 0.00 | 70 | 1000.2 |
| 20260505040123 | 42 | 132 | 0.0 | 4.0 | 0.00 | 0.00 | 0.00 | 68 | 999.9 |
| 20260505034559 | 41 | 132 | 2.0 | 4.0 | 0.00 | 0.00 | 0.00 | 70 | 1000.0 |
| 20260505033109 | 39 | 84 | 2.0 | 6.0 | 0.00 | 0.00 | 0.00 | 78 | 999.7 |
| 20260505031617 | 39 | 49 | 1.0 | 6.0 | 0.00 | 0.00 | 0.00 | 81 | 999.5 |
| 20260505030113 | 39 | 111 | 0.0 | 3.0 | 0.00 | 0.00 | 0.00 | 81 | 999.6 |
| 20260505024607 | 40 | 111 | 0.0 | 1.0 | 0.00 | 0.00 | 0.00 | 77 | 999.3 |
| 20260505023109 | 40 | 111 | 0.0 | 3.0 | 0.00 | 0.00 | 0.00 | 74 | 998.9 |
| 20260505021611 | 39 | 5 | 0.0 | 5.0 | 0.00 | 0.00 | 0.00 | 78 | 998.9 |
| 20260505020125 | 39 | 89 | 3.0 | 9.0 | 0.00 | 0.00 | 0.00 | 81 | 998.8 |
| 20260505014546 | 39 | 26 | 4.0 | 9.0 | 0.00 | 0.00 | 0.00 | 82 | 999.0 |
| 20260505013050 | 39 | 38 | 2.0 | 10.0 | 0.00 | 0.00 | 0.00 | 81 | 998.3 |
| 20260505011602 | 41 | 16 | 3.0 | 12.0 | 0.00 | 0.00 | 0.00 | 74 | 998.5 |
| 20260505010059 | 45 | 318 | 6.0 | 14.0 | 0.00 | 0.00 | 0.00 | 59 | 998.3 |
| 20260505004504 | 50 | 274 | 3.0 | 10.0 | 0.00 | 0.00 | 0.00 | 44 | 997.6 |
| 20260505003006 | 50 | 277 | 2.0 | 8.0 | 0.00 | 0.00 | 0.00 | 45 | 997.7 |
| 20260505001609 | 50 | 253 | 2.0 | 4.0 | 0.00 | 0.00 | 0.00 | 47 | 997.6 |
| 20260505000117 | 50 | 191 | 1.0 | 3.0 | 0.00 | 0.00 | 0.00 | 50 | 997.8 |